Location: Tamazert
(32.6352°N, 5.2072°W)
Time: 12:53:17
(UTC+00:00)

Tiros 1 despin weight - Pass Details

Date: 13 October 2022
Orbit: 590 x 637 km, 48.2° (Epoch: 25 November)

Event Time Altitude Azimuth Distance (km) Brightness Sun altitude
Rises 12:36:35 0° 261° (W) 2,809 ? 48.9°
Reaches altitude 10° 12:39:08 10° 273° (W) 1,912 ? 48.8°
Maximum altitude 12:42:52 27° 332° (NNW) 1,149 ? 48.6°
Drops below altitude 10° 12:46:39 10° 31° (NNE) 1,930 ? 48.4°
Sets 12:49:14 0° 44° (NE) 2,841 ? 48.3°
